Vitoria, Spain

10:55 AM CEST on August 21, 2017 (GMT +0200)
Foronda

Weather History for LEVT - January, 2013

Change the Weather History Date:

Wednesday, January 9, 2013

  Actual Average Record
Temperature  
Mean Temperature 34 °F -  
Max Temperature 44 °F 48 °F 58 °F (2015)
Min Temperature 24 °F 32 °F 15 °F (2009)
Degree Days  
Heating Degree Days 31    
Moisture  
Dew Point 33 °F    
Average Humidity 96    
Maximum Humidity 100    
Minimum Humidity 81    
Precipitation  
Precipitation 0.00 in - - ()
Sea Level Pressure  
Sea Level Pressure 30.25 in    
Wind  
Wind Speed 2 mph ()    
Max Wind Speed 13 mph    
Max Gust Speed -    
Visibility 3.3 miles    
Events Fog , Rain    
Averages and records for this station are not official NWS values.
T = Trace of Precipitation, MM = Missing Value Source: Averaged Metar Reports

Daily Weather History Graph

Daily Weather History Graph

Search for Another Location

Airport or City:

Trip Planner

Search our weather history database for the weather conditions in past years. The results will help you decide how hot, cold, wet, or windy it might be!

Date:

Astronomy

Jan. 09, 2013 Rise Set
Actual Time 8:41 AM CET 5:55 PM CET
Civil Twilight 8:09 AM CET 6:27 PM CET
Nautical Twilight 7:34 AM CET 7:02 PM CET
Astronomical Twilight 7:00 AM CET 7:36 PM CET
Moon 6:04 AM CET (1/9) 3:41 PM CET (1/9)
Length of Visible Light 10h 17m
Length of Day
9h 14m
Waning Crescent, 8% of the Moon is Illuminated
Jan 9
Waning Crescent
Jan 11
New
Jan 19
First Quarter
Jan 27
Full
Feb 3
Last Quarter

Hourly Weather History & Observations

Time (CET) Temp. Windchill Dew Point Humidity Pressure Visibility Wind Dir Wind Speed Gust Speed Precip Events Conditions
12:00 AM 32.0 °F - 30.2 °F 93% 30.33 in - Variable 1.2 mph - N/A   Clear
12:30 AM 30.2 °F - 30.2 °F 100% 30.33 in - Calm Calm - N/A   Clear
1:00 AM 28.4 °F - 28.4 °F 100% 30.33 in 5.6 mi NE 1.2 mph - N/A   Unknown
1:30 AM 28.4 °F - 28.4 °F 100% 30.30 in 5.6 mi Variable 1.2 mph - N/A   Unknown
2:30 AM 28.4 °F - 28.4 °F 100% 30.30 in 3.7 mi Variable 1.2 mph - N/A   Unknown
3:00 AM 26.6 °F 22.6 °F 26.6 °F 100% 30.30 in 3.7 mi NE 3.5 mph - N/A Fog Patches of Fog
3:16 AM 26.6 °F - 26.6 °F 100% 30.30 in 0.9 mi NE 2.3 mph - N/A   Mist
3:30 AM 26.6 °F 22.6 °F 26.6 °F 100% 30.30 in 0.3 mi NE 3.5 mph - N/A Fog Light Freezing Fog
4:00 AM 26.6 °F 21.2 °F 26.6 °F 100% 30.30 in 0.3 mi NE 4.6 mph - N/A Fog Light Freezing Fog
4:30 AM 26.6 °F - 26.6 °F 100% 30.30 in 0.3 mi Calm Calm - N/A Fog Light Freezing Fog
5:00 AM 24.8 °F - 24.8 °F 100% 30.27 in 0.3 mi Calm Calm - N/A Fog Light Freezing Fog
5:30 AM 24.8 °F - 24.8 °F 100% 30.27 in 0.4 mi Calm Calm - N/A Fog Light Freezing Fog
6:00 AM 24.8 °F - 24.8 °F 100% 30.27 in 0.3 mi Calm Calm - N/A Fog Light Freezing Fog
6:30 AM 24.8 °F - 24.8 °F 100% 30.24 in 0.2 mi Calm Calm - N/A Fog Light Freezing Fog
7:00 AM 24.8 °F - 24.8 °F 100% 30.27 in 0.2 mi Calm Calm - N/A Fog Light Freezing Fog
7:30 AM 24.8 °F - 24.8 °F 100% 30.24 in 0.2 mi Calm Calm - N/A Fog Light Freezing Fog
8:00 AM 24.8 °F - 24.8 °F 100% 30.24 in 0.4 mi Calm Calm - N/A Fog Patches of Fog
8:30 AM 24.8 °F - 24.8 °F 100% 30.27 in 0.3 mi Calm Calm - N/A Fog Patches of Fog
9:00 AM 24.8 °F - 24.8 °F 100% 30.27 in 0.3 mi Calm Calm - N/A Fog Light Freezing Fog
9:30 AM 26.6 °F - 26.6 °F 100% 30.27 in 0.6 mi NNE 2.3 mph - N/A   Scattered Clouds
10:00 AM 26.6 °F - 26.6 °F 100% 30.27 in 1.2 mi Calm Calm - N/A   Mist
10:30 AM 28.4 °F - 28.4 °F 100% 30.27 in 1.6 mi Variable 1.2 mph - N/A   Mist
11:00 AM 30.2 °F - 30.2 °F 100% 30.27 in 1.6 mi Calm Calm - N/A   Mist
11:30 AM 32.0 °F - 32.0 °F 100% 30.27 in 2.2 mi Calm Calm - N/A   Mist
12:00 PM 33.8 °F - 33.8 °F 100% 30.27 in 3.1 mi Variable 1.2 mph - N/A   Partly Cloudy
12:30 PM 35.6 °F 32.8 °F 35.6 °F 100% 30.24 in 3.7 mi NE 3.5 mph - N/A Fog Fog
1:00 PM 39.2 °F - 37.4 °F 93% 30.24 in 4.3 mi Variable 1.2 mph - N/A Fog Fog
1:30 PM 41.0 °F 37.1 °F 37.4 °F 87% 30.21 in 5.6 mi SW 5.8 mph - N/A   Scattered Clouds
2:00 PM 42.8 °F 41.1 °F 37.4 °F 81% 30.21 in 6.2 mi WSW 3.5 mph - N/A   Mostly Cloudy
2:30 PM 42.8 °F - 37.4 °F 81% 30.18 in 6.2 mi Variable 2.3 mph - N/A   Scattered Clouds
3:00 PM 44.6 °F - 41.0 °F 87% 30.18 in 6.2 mi WSW 2.3 mph - N/A   Scattered Clouds
3:30 PM 44.6 °F 39.7 °F 39.2 °F 81% 30.18 in 6.2 mi SW 9.2 mph - N/A   Mostly Cloudy
4:00 PM 44.6 °F - 41.0 °F 87% 30.18 in 6.2 mi Variable 2.3 mph - N/A   Mostly Cloudy
4:30 PM 44.6 °F - 41.0 °F 87% 30.21 in 6.2 mi Variable 2.3 mph - N/A   Mostly Cloudy
5:00 PM 42.8 °F 40.1 °F 41.0 °F 93% 30.21 in 5.0 mi SW 4.6 mph - N/A Rain Light Rain
5:30 PM 42.8 °F 39.3 °F 41.0 °F 93% 30.21 in 5.0 mi WSW 5.8 mph - N/A Rain Light Rain
6:00 PM 42.8 °F 39.3 °F 41.0 °F 93% 30.21 in 3.1 mi SW 5.8 mph - N/A Rain Rain
6:30 PM 42.8 °F - 41.0 °F 93% 30.21 in 3.7 mi Variable 1.2 mph - N/A Rain Rain
7:00 PM 41.0 °F - 41.0 °F 100% 30.18 in 5.0 mi Variable 1.2 mph - N/A   Mostly Cloudy
7:30 PM 42.8 °F - 41.0 °F 93% 30.21 in 5.0 mi Calm Calm - N/A   Mostly Cloudy
8:00 PM 41.0 °F - 41.0 °F 100% 30.21 in 5.0 mi Variable 2.3 mph - N/A Rain Light Rain
8:30 PM 41.0 °F - 41.0 °F 100% 30.21 in 5.0 mi Variable 1.2 mph - N/A Rain Light Rain
9:00 PM 41.0 °F - 41.0 °F 100% 30.21 in 4.3 mi Variable 2.3 mph - N/A Rain Light Rain
9:30 PM 41.0 °F - 41.0 °F 100% 30.21 in 4.3 mi Variable 1.2 mph - N/A Rain Light Rain
10:00 PM 41.0 °F - 41.0 °F 100% 30.21 in 5.6 mi Calm Calm - N/A   Mostly Cloudy
10:30 PM 41.0 °F 39.0 °F 41.0 °F 100% 30.21 in 6.2 mi SW 3.5 mph - N/A   Scattered Clouds
11:00 PM 42.8 °F 39.3 °F 41.0 °F 93% 30.21 in 6.2 mi SW 5.8 mph - N/A   Scattered Clouds
11:30 PM 42.8 °F 36.2 °F 41.0 °F 93% 30.21 in 6.2 mi SW 12.7 mph - N/A   Scattered Clouds